Flag for Germany Weather past 2 weeks in Uelzen, Lower Saxony, Germany

Now
43 °F

Sprinkles. Broken clouds.


Feels Like: 38 °F
Forecast: 37 / 44 °F
Wind: 8 mph from Northwest

Location: Fassberg

Current Time: Mar 1, 2015 at 5:53:04 PM

Latest Report: Mar 1, 2015 at 5:20 PM


Visibility: N/A

Pressure: 29.53 "Hg

Humidity: 81%

Dew point: 37 °F

Location of UelzenLocation

Historic Weather in Uelzen — Graph

°F

Uelzen temperature yesterday

Maximum temperature yesterday: 45 °F (at 4:20 PM)
Minimum temperature yesterday: 30 °F (at 2:20 AM)
Average temperature yesterday: 36 °F

Past Weeks' High & Low Weather Summary

 TemperatureHumidityPressure
High48 °F (Feb 26, 1:20 PM)100% (Feb 15, 12:20 AM)30.72 "Hg (Feb 15, 12:20 AM)
Low23 °F (Feb 17, 5:20 AM)49% (Feb 18, 5:00 PM)29.27 "Hg (Feb 21, 10:20 AM)
Average37 °F82%29.95 "Hg
* Reported Feb 14 4:20 PM — Mar 1 4:20 PM, Uelzen, Weather by CustomWeather, © 2015

Note: Actual official high and low records may vary slightly from our data, if they occured in-between our weather recording intervals... More about our weather records

Advertising

Uelzen weather history for previous 24 hours

 ConditionsComfort  
Time TempWeatherWind HumidityBarometerVisibility
4:20 PM
Sun, Mar 1
46 °FScattered showers. Partly sunny.14 mph71%29.50 "HgN/A
3:20 PM46 °FBroken clouds.14 mph82%29.50 "HgN/A
2:20 PM45 °FPartly sunny.21 mph76%29.47 "HgN/A
1:50 PM46 °FSprinkles. Broken clouds.10 mph87%29.47 "HgN/A
1:20 PM45 °FPartly sunny.13 mph87%29.47 "HgN/A
12:20 PM43 °FPartly sunny.13 mph87%29.50 "HgN/A
11:20 AM41 °FPartly sunny.14 mph93%29.50 "Hg6 mi
10:20 AM39 °FDrizzle. Partly sunny.14 mph93%29.50 "Hg4 mi
9:20 AM37 °FDrizzle. Fog.14 mph93%29.50 "Hg2 mi
8:20 AM37 °FDrizzle. Fog.15 mph93%29.50 "Hg2 mi
7:48 AM37 °FDrizzle. Fog.13 mph87%29.53 "Hg2 mi
7:20 AM37 °FLight rain. Broken clouds.12 mph87%29.53 "Hg4 mi
6:20 AM37 °FLight rain. Passing clouds.13 mph81%29.56 "HgN/A
5:20 AM37 °FLight rain. Overcast.14 mph75%29.59 "HgN/A
4:20 AM39 °FPassing clouds.13 mph61%29.62 "HgN/A
3:20 AM37 °FPassing clouds.10 mph65%29.65 "HgN/A
2:20 AM37 °FPassing clouds.12 mph65%29.71 "HgN/A
1:20 AM36 °FPassing clouds.12 mph70%29.74 "HgN/A
12:20 AM34 °FPartly cloudy.10 mph75%29.80 "HgN/A
11:20 PM
Sat, Feb 28
34 °FPassing clouds.9 mph70%29.83 "HgN/A
10:20 PM34 °FPassing clouds.8 mph75%29.89 "HgN/A
9:20 PM36 °FPassing clouds.8 mph70%29.92 "HgN/A
8:20 PM37 °FPassing clouds.8 mph70%29.92 "HgN/A
7:20 PM37 °FPassing clouds.5 mph60%29.95 "HgN/A
6:20 PM39 °FPassing clouds.7 mph61%29.95 "HgN/A
5:20 PM43 °FScattered clouds.7 mph49%29.98 "HgN/A
Weather by CustomWeather, © 2015

See weather overviewHow to use our weather pages